Location: Tel Aviv
(32.0670°N, 34.7670°E)
Time: 22:55:27
(UTC+02:00)

Transit 2A Rocket - All Passes

Search period start: 25 January 2022 00:00
Search period end: 04 February 2022 00:00
Orbit: 584 x 917 km, 66.7° (Epoch: 25 January)

Date Brightness Start Highest point End Pass type
(mag) Time Alt. Az. Time Alt. Az. Time Alt. Az.
25 Jan - 02:26:48 10° NNE 02:29:13 13° NE 02:31:33 10° ENE night (unlit)
25 Jan - 04:07:08 10° NNW 04:12:35 78° WSW 04:17:29 10° SSE visible
25 Jan - 16:53:55 10° SSE 16:58:36 25° ESE 17:03:26 10° NE daylight
25 Jan - 18:35:15 10° SW 18:40:54 44° WNW 18:46:45 10° NNE visible
26 Jan - 03:24:29 10° NNW 03:29:52 56° ENE 03:34:43 10° SE visible
26 Jan - 05:09:17 10° WNW 05:11:43 13° WSW 05:14:04 10° SW visible
26 Jan - 16:13:33 10° SE 16:16:15 13° ESE 16:18:59 10° ENE daylight
26 Jan - 17:52:10 10° SSW 17:58:06 75° WNW 18:04:16 10° NNE visible
26 Jan - 19:39:43 10° WNW 19:41:44 12° NW 19:43:45 10° NNW visible
27 Jan - 02:42:10 10° N 02:47:00 31° NE 02:51:25 10° ESE night (unlit)
27 Jan - 04:25:01 10° NW 04:29:23 26° WSW 04:33:26 10° SSW visible
27 Jan - 17:09:36 10° SSW 17:15:27 64° ESE 17:21:31 10° NNE daylight
27 Jan - 18:54:19 10° W 18:58:32 19° NW 19:02:50 10° N visible
28 Jan - 02:00:17 10° N 02:03:57 18° NE 02:07:25 10° E night (unlit)
28 Jan - 03:41:44 10° NW 03:46:56 51° WSW 03:51:38 10° S night (unlit)
28 Jan - 16:27:34 10° S 16:32:54 36° ESE 16:38:25 10° NE daylight
28 Jan - 18:10:13 10° WSW 18:15:31 32° WNW 18:20:55 10° N visible
29 Jan - 01:20:05 10° NE 01:20:46 10° NE 01:21:26 10° NE night (unlit)
29 Jan - 02:58:53 10° NNW 03:04:20 83° ENE 03:09:13 10° SSE night (unlit)
29 Jan - 15:46:17 10° SSE 15:50:29 20° ESE 15:54:45 10° ENE daylight
29 Jan - 17:26:47 10° SW 17:32:37 53° WNW 17:38:37 10° NNE visible
30 Jan - 02:16:22 10° NNW 02:21:34 44° ENE 02:26:15 10° SE night (unlit)
30 Jan - 04:00:17 10° WNW 04:03:36 17° WSW 04:06:44 10° SW night (unlit)
30 Jan - 15:07:30 10° ESE 15:08:09 10° E 15:08:48 10° E daylight
30 Jan - 16:43:54 10° SSW 16:49:52 90° SSE 16:56:03 10° NNE daylight
30 Jan - 18:30:12 10° W 18:33:17 14° NW 18:36:24 10° NNW visible
31 Jan - 01:34:11 10° N 01:38:37 25° NE 01:42:43 10° ESE night (unlit)
31 Jan - 03:16:31 10° NW 03:21:13 33° WSW 03:25:32 10° S night (unlit)
31 Jan - 16:01:30 10° S 16:07:15 52° ESE 16:13:10 10° NE daylight
31 Jan - 17:45:27 10° WSW 17:50:10 23° NW 17:54:57 10° N visible
01 Feb - 00:52:36 10° NNE 00:55:32 15° NE 00:58:19 10° E night (unlit)
01 Feb - 02:33:25 10° NNW 02:38:43 65° WSW 02:43:29 10° SSE night (unlit)
01 Feb - 15:19:43 10° SSE 15:24:45 29° ESE 15:29:56 10° NE daylight
01 Feb - 17:01:38 10° SW 17:07:12 38° WNW 17:12:52 10° N daylight
02 Feb - 01:50:42 10° NNW 01:56:03 66° ENE 02:00:53 10° SE night (unlit)
02 Feb - 03:36:47 10° W 03:37:46 11° W 03:38:43 10° WSW night (unlit)
02 Feb - 14:38:51 10° SE 14:42:21 16° ESE 14:45:55 10° ENE daylight
02 Feb - 16:18:25 10° SW 16:24:22 65° WNW 16:30:28 10° NNE daylight
03 Feb - 01:08:17 10° N 01:13:13 35° ENE 01:17:43 10° ESE night (unlit)
03 Feb - 02:51:33 10° NW 02:55:27 22° WSW 02:59:06 10° SSW night (unlit)
03 Feb - 15:35:42 10° SSW 15:41:39 75° ESE 15:47:47 10° NNE daylight
03 Feb - 17:21:03 10° W 17:24:53 17° NW 17:28:44 10° NNW daylight
